sat.trackr.live / text

‹ back to catalog

STSAT-3

NORAD 39422 · 2013-066G

PAYLOAD ACTIVE UNKNOWN

§ Identity

Operator
Country
SKOR
Launch date
2013-11-21
Launch site
DLS
Launch vehicle
Mass (kg)
RCS (m²)
0.46

Purposes: science

External: N2YO · Heavens-Above · Gunter

§ Orbital elements

Epoch: 2026-05-25T03:20:43.507680Z

Period
95.84 min
Inclination
97.6164°
Eccentricity
0.0010382
Mean motion
15.02578217 rev/d
Perigee alt
551.7 km
Apogee alt
566.2 km
Semi-major
6,937.1 km
B*
2.5636e-4
RAAN
115.4074°
Arg perigee
109.3940°
Mean anomaly
250.8408°
Rev number
68,074

§ Raw data

STSAT-31 39422U 13066G   26145.13939245  .00003355  00000+0  25636-3 0  99902 39422  97.6164 115.4074 0010382 109.3940 250.8408 15.02578217680747

JSON: /api/v1/satellites/39422 · /tle

For live sub-satellite position, see the globe view (requires WebGL).

§ Visibility from observer

Set your observer location to see the next 7 days of passes ≥ 10°. The values pass through the URL so the page stays shareable.

No JS? Fill the form by hand. The geolocation button needs JavaScript.